Location: Enborne
(51.3833°N, 1.3667°W)
Time: 22:54:05
(UTC+00:00)

Lacrosse 4 Rocket - Pass Details

Date: 18 September 2020
Orbit: 543 x 615 km, 68.0° (Epoch: 21 October)

Event Time Altitude Azimuth Distance (km) Brightness Sun altitude
Rises 20:56:53 0° 328° (NNW) 2,717 6.0 -24.6°
Reaches altitude 10° 20:59:17 10° 339° (NNW) 1,823 4.7 -24.9°
Enters shadow 21:02:10 28° 21° (NNE) 1,047 2.8 -25.3°
